Погода в Надыме

Погода в Надыме : погода сейчас, прогноз погоды и архив. Всё, что Вы хотите узнать о погоде в Надыме!

Поиск расширенной информации на нашем сайте:

Другие новости

Новости СМИ2

Главная страница сайта

Новости сайта

03.07.2017

Напоминаем, что на нашем специализированном сайте Метеоцентр.Азия вы можете получить высокодетализированные автоматические прогнозы погоды по пунктам России, СНГ и мира в авиационном формате (включающие направление и скорость ветра, видимость, явления погоды, количество и форму облачности, нижнюю и верхнюю границу облачности).

Рекомендуем: полезная сауна турецкая цена любовная

Погода в Надыме - сегодня

Время (UTC), дата Ветер
(°,м/с) 
Видим.   Явления Облачность Т
(°С)
Тd
(°С)
f(%) Тe
(°С)
Pmin
(гПа)
dP
(гПа)
Po
(мм)
O2
(г/м3)
Тmin Tmax R s Состояние
почвы
03 21.09.17 290 (З) 10 км    10/10 300 м 
[St]
+2.2 +1.6 96 +2  1021.1  0.1  765  305  +1.8        сухая 
06 21.09.17 270 (З) 4000 м  слаб. ливневой дождь  10/10 200 м кучево-дожд. 
[Cb cap]
+1.7 +1.7 100 +1  1020.4  -0.7  764  306  +1.3         
09 21.09.17 280 (З) 4000 м  слаб. дождь{ливн. осадки}  10/10 100 м 
[Frnb]
+4.1 +4.1 100 +4  1019.6  -0.8  763  302           
12 21.09.17 320 (СЗ) 3{11}  10 км  в посл. час ливневой снег  6/4 300 м кучево-дожд., средняя 
[Cb cap|Ac trans]
+2 +0.9 92 +1  1021.1  1.5  764  306           
15 21.09.17 330 (СЗ) 10 км    9/9 1000 м 
[Sc]
+0.4 -1.1 90 1022.6  1.5  766  308    +4.6     
18 21.09.17 290 (З) 10 км    8/8 1000 м 
[Sc]
-0.4 -0.5 99 -1  1022.9  0.3  766  309           
21 21.09.17 310 (СЗ) 10 км    9/9 300 м кучево-дожд. 
[Cb cap]
+0.3 +0.1 99 1023.9  767  309           
00 22.09.17 320 (СЗ) 10 км    9/9 300 м кучево-дожд. 
[Cb cap]
+0.3 -0.9 92 1024.9  767  309           
03 22.09.17 330 (СЗ) 2000 м  ливневой снег  10/10 300 м кучево-дожд. 
[Cb cap]
-0.5 -0.5 100 -1  1026.1  1.1  768  310  -1    0.0    влажная 
06 22.09.17 330 (СЗ) 10 км  в посл. час снег{ливн. осадки}  10/10 600 м кучево-дожд. 
[Cb cap]
+1.5 -0.2 88 1026.6  0.5  769  308           
09 22.09.17 300 (СЗ) 10 км    10/10 600 м кучево-дожд. 
[Cb cap]
+2.2 -0.8 81 +1  1027  0.4  769  307           
12 22.09.17 310 (СЗ) 10 км  {ливн. осадки}  10/10 600 м кучево-дожд. 
[Cb cap]
+1.6 -0.8 84 +1  1028.1  1.1  770  308           
15 22.09.17 290 (З) 10 км    10/10 1000 м 
[Sc]
+1.1 -1.8 81 1028.5  0.4  770  309    +2.5  0.7     
18 22.09.17 290 (З) 10 км    9/6 1500 м средняя 
[Sc|Ac trans]
+0.5 -1.7 85 +1  1028.7  0.2  770  310           
21 22.09.17 300 (СЗ) 10 км    9/9 1500 м 
[Sc]
+0.4 -1.2 89 +1  1029.2  0.5  771  310           
00 23.09.17 280 (З) 4000 м  слаб. снег  10/10 300 м 
[Sc]
+0.2 +0.1 99 -1  1029.8  0.6  771  310           
03 23.09.17 290 (З) 2000 м  дымка{снег}  10/10 100 м 
[St]
+1 +1 100 +2  1030  0.2  771  309  -0.6    0.6    влажная 
06 23.09.17 340 (С) 10 км  {снег}  9/9 300 м 
[Sc]
+2.7 +1.2 90 +3  1030.3  0.3  771  308           
09 23.09.17 360 (С) 10 км    9/9 600 м 
[Sc]
+4 -0.8 71 +5  1030.3  771  306           
12 23.09.17 010 (С) 10 км    6/3 1000 м верхняя 
[Sc|Ci fib]
+3.2 -1.8 70 +4  1030.5  0.2  772  308           
15 23.09.17 тихо ()   10 км    6/0 средняя 
[Ac trans]
-2.6 -2.6 100 -3  1031  0.4  772  314    +4.1       
18 23.09.17 060 (СВ) 10 км    8/5 1000 м средняя 
[Sc|Ac trans]
-0.2 -1.1 94 1031.2  0.2  772  311           
21 23.09.17 110 (В) 10 км    9/6 1000 м средняя 
[Sc|Ac trans]
+0.2 -0.9 92 +1  1031.4  0.3  772  311           
00 24.09.17 180 (Ю) 10 км    9/6 1000 м средняя 
[Sc|Ac trans]
+0.7 +0.1 96 +1  1031.3  0.1  772  310           
03 24.09.17 210 (ЮЗ) 10 км    10/6 600 м средняя 
[Sc|Ac und]
+1.8 +1.6 99 +3  1030.9  -0.4  772  309  -2.8        влажная 
Время (UTC), дата Ветер
(°,м/с) 
Видим.   Явления Облачность Т
(°С)
Тd
(°С)
f(%) Тe
(°С)
Pmin
(гПа)
dP
(гПа)
Po
(мм)
O2
(г/м3)
Тmin Tmax R s Состояние
почвы

Для получения пояснительной информации подведите курсор к названию столбца.

ПОГОДА в Надыме - архив

Всё, что Вы хотите узнать о погоде в Надыме - удобно и подробно!

Выберите нужную дату (начиная с 1 января 2015* года) и нажмите кнопку "Найти".
Будут отображены архивные сводки погоды по пункту Надым, начиная с указанной даты.


Отображать данные в формате CSV (для использования в таблицах Excel)


Внимание! Наш архив погоды предназначен исключительно для личного некоммерческого использования в познавательных целях. Если Вам необходимы официальные справки о состоянии погоды (для производственных, юридических, коммерческих и т.п. целей), обращайтесь в органы Росгидромета.

*Примечание: данная дата относится к архиву по метеостанциям СССР (Россия, СНГ, Балтия).
Архив по метеостанциям Зарубежной Европы и Азии (кроме Китая) хранится 10 дней, по другим регионам земного шара (Китай, Африка, Америка, Австралия, Океания) - 1 день.

Надым - район местоположения метеостанции


Название, широта, долгота, высота метеостанции:
Надым 65.6°ш. 72.7°д. 12 м над ур. моря [Российская Федерация]

Дополнительная информация

В oтличие oт бoльшинства пoгoдных сайтoв мы публикуем пoдрoбную метеoинфoрмацию в детальнoм прoфессиoнальнoм фoрмате.

Характеристики температуры и влажнoсти вoздуха измеряются на высoте 2 м в тени вдали oт зданий и деревьев.
Скoрoсть ветра измеряется на высoте 10 м (на урoвне рoста челoвека скoрoсть ветра ниже в 1.5-2 раза). Если метеoстанция нахoдится в гoрoде или в лесу, тo скoрoсть ветра занижена на 2-4 м/с пo сравнению с oткрытым местoм. Скoрoсть ветра над акватoриями крупных рек и oзёр, а также на вершинах хoлмoв на 2-5 м/с выше, чем в oбычных услoвиях.
Атмoсфернoе давление в разных тoчках местнoсти мoжет значительнo oтличаться oт давления на метеoстанции, в зависимoсти oт услoвий рельефа (при пoдъёме на 10 м давление пoнижается примернo на 1 мм рт.ст.).